EW7099 Weather Reports


time (UTC)temp
C
wind
direction
speed
KPH
gust
KPH
rain 1hr
cm
rain 24hr
cm
rain mn
cm
humidity
%
barometer
mb
20260831044525 27 325 0.0 0.0 0.00 0.00 0.00 79 1012.0
20260831043025 27 315 0.0 0.0 0.00 0.00 0.00 78 1012.1
20260831041523 27 315 0.0 0.0 0.00 0.00 0.00 78 1011.9
20260831040039 27 315 0.0 0.0 0.00 0.00 0.00 78 1011.6
20260831034513 28 315 0.0 0.0 0.00 0.00 0.00 77 1011.5
20260831033018 28 316 0.0 0.0 0.00 0.00 0.00 77 1011.2
20260831031509 28 309 0.0 6.4 0.00 0.00 0.00 76 1011.1
20260831030012 28 331 3.2 11.3 0.00 0.00 0.00 75 1010.9
20260831024501 28 290 0.0 8.0 0.00 0.00 0.00 74 1010.8
20260831023100 28 309 0.0 9.7 0.00 0.00 0.00 74 1010.6
20260831021558 29 330 3.2 9.7 0.00 0.00 0.00 74 1010.3
20260831020024 29 279 1.6 8.0 0.00 0.00 0.00 74 1010.0
20260831014522 30 252 1.6 11.3 0.00 0.00 0.00 73 1009.7
20260831013017 30 274 0.0 8.0 0.00 0.00 0.00 71 1009.7
20260831011513 30 255 0.0 8.0 0.00 0.00 0.00 69 1009.6
20260831010012 30 288 6.4 11.3 0.00 0.00 0.00 69 1009.3
20260831004518 30 288 0.0 11.3 0.00 0.00 0.00 69 1009.2
20260831003013 31 246 1.6 11.3 0.00 0.00 0.00 68 1009.1
20260831001509 31 261 3.2 11.3 0.00 0.00 0.00 67 1009.2
20260831000008 31 227 1.6 12.9 0.00 0.00 0.00 67 1009.1
20260830234509 31 232 3.2 16.1 0.00 0.00 0.00 68 1009.2
20260830233011 31 180 1.6 17.7 0.00 0.00 0.00 67 1009.1
20260830231505 32 183 6.4 14.5 0.00 0.00 0.00 66 1009.0
20260830230004 32 210 11.3 14.5 0.00 0.00 0.00 66 1009.0
20260830224503 32 157 11.3 14.5 0.00 0.00 0.00 66 1008.9
20260830223004 32 165 9.7 16.1 0.00 0.00 0.00 65 1008.8
20260830223002 32 155 9.7 16.1 0.00 0.00 0.00 65 1008.8
20260830221601 32 211 8.0 17.7 0.00 0.00 0.00 65 1008.5
20260830220104 32 222 4.8 14.5 0.00 0.00 0.00 63 1008.7
20260830214600 33 225 1.6 12.9 0.00 0.00 0.00 63 1008.7
20260830213058 33 211 1.6 14.5 0.00 0.00 0.00 63 1008.5
20260830211531 33 123 6.4 16.1 0.00 0.00 0.00 62 1008.5
20260830210028 33 134 8.0 16.1 0.00 0.00 0.00 61 1008.8
20260830204532 33 149 12.9 24.1 0.00 0.00 0.00 60 1008.7
20260830203026 34 167 6.4 20.9 0.00 0.00 0.00 58 1008.8
20260830201524 34 169 12.9 24.1 0.00 0.00 0.00 57 1008.8
20260830200034 35 177 11.3 30.6 0.00 0.00 0.00 56 1009.0
20260830194554 35 176 17.7 33.8 0.00 0.00 0.00 54 1009.2
20260830193055 35 172 17.7 29.0 0.00 0.00 0.00 52 1009.5
20260830191618 35 173 16.1 25.7 0.00 0.00 0.00 52 1009.5
20260830190105 36 360 16.1 24.1 0.00 0.00 0.00 53 1009.6
20260830184548 36 204 9.7 29.0 0.00 0.00 0.00 51 1009.7
20260830183050 35 150 14.5 25.7 0.00 0.00 0.00 56 1009.7
20260830181544 35 151 12.9 22.5 0.00 0.00 0.00 57 1009.6
20260830180044 35 154 16.1 25.7 0.00 0.00 0.00 57 1009.6
20260830174547 35 206 8.0 25.7 0.00 0.00 0.00 57 1009.5
20260830173047 35 177 14.5 24.1 0.00 0.00 0.00 57 1009.5
20260830171541 35 135 12.9 30.6 0.00 0.00 0.00 58 1009.4
20260830170039 35 161 14.5 24.1 0.00 0.00 0.00 57 1009.2
20260830164537 35 144 6.4 19.3 0.00 0.00 0.00 56 1009.2
20260830163039 35 187 1.6 12.9 0.00 0.00 0.00 52 1009.2
20260830161610 35 178 0.0 11.3 0.00 0.00 0.00 53 1009.4
20260830160100 34 230 0.0 9.7 0.00 0.00 0.00 56 1009.4
20260830154524 33 285 0.0 8.0 0.00 0.00 0.00 59 1009.6
20260830153018 32 177 0.0 11.3 0.00 0.00 0.00 61 1009.6
20260830151512 32 187 3.2 12.9 0.00 0.00 0.00 63 1009.7
20260830150018 31 262 1.6 17.7 0.00 0.00 0.00 64 1009.7
20260830144517 31 263 4.8 12.9 0.00 0.00 0.00 65 1009.6
20260830143004 30 302 1.6 12.9 0.00 0.00 0.00 67 1009.7
20260830141557 28 295 1.6 11.3 0.00 0.00 0.00 71 1009.8
20260830140104 27 284 0.0 1.6 0.00 0.00 0.00 75 1009.9
20260830134555 26 312 0.0 0.0 0.00 0.00 0.00 77 1009.9
20260830133102 26 312 0.0 6.4 0.00 0.00 0.00 80 1009.8
20260830131556 25 313 0.0 0.0 0.00 0.00 0.00 81 1009.8
20260830130100 -17 0.0 0.0 0.00 0.00 0.00 1009.7
20260830124545 -17 0.0 0.0 0.00 0.00 0.00 1009.8
20260830123041 -17 0.0 0.0 0.00 0.00 0.00 1009.5
20260830121526 -17 0.0 0.0 0.00 0.00 0.00 1009.3
20260830120023 -17 0.0 0.0 0.00 0.00 0.00 1009.1
20260830114526 26 311 0.0 0.0 0.00 0.00 0.00 79 1008.9
20260830113021 26 311 0.0 0.0 0.00 0.00 0.00 79 1008.7
20260830111526 26 311 0.0 0.0 0.00 0.00 0.00 79 1008.6
20260830110015 26 311 0.0 0.0 0.00 0.00 0.00 79 1008.4
20260830104516 26 331 0.0 0.0 0.00 0.00 0.00 80 1008.4
20260830103014 27 320 0.0 0.0 0.00 0.00 0.00 80 1008.2
20260830101515 27 321 0.0 0.0 0.00 0.00 0.00 80 1008.5
20260830100015 27 319 0.0 0.0 0.00 0.00 0.00 80 1008.6
20260830094514 27 309 0.0 0.0 0.00 0.00 0.00 80 1008.7
20260830093025 27 309 0.0 0.0 0.00 0.00 0.00 80 1008.7
20260830091523 27 309 0.0 0.0 0.00 0.00 0.00 81 1008.9
20260830090018 27 309 0.0 0.0 0.00 0.00 0.00 81 1009.0
20260830084517 27 309 0.0 0.0 0.00 0.00 0.00 80 1009.1
20260830083016 27 309 0.0 0.0 0.00 0.00 0.00 80 1009.3
20260830081528 27 309 0.0 0.0 0.00 0.00 0.00 79 1009.5
20260830080013 27 331 0.0 0.0 0.00 0.00 0.00 79 1009.6
20260830074522 27 333 0.0 0.0 0.00 0.00 0.00 78 1009.7
20260830073010 28 332 0.0 0.0 0.00 0.00 0.00 78 1010.0
20260830071612 27 336 0.0 0.0 0.00 0.00 0.00 78 1010.2
20260830070104 27 317 0.0 0.0 0.00 0.00 0.00 79 1010.4
20260830064538 27 327 0.0 0.0 0.00 0.00 0.00 80 1010.6
20260830063007 27 315 0.0 0.0 0.00 0.00 0.00 80 1010.8
20260830061509 28 288 0.0 0.0 0.00 0.00 0.00 80 1011.0
20260830060047 28 310 0.0 0.0 0.00 0.00 0.00 80 1011.0
20260830054533 28 295 0.0 0.0 0.00 0.00 0.00 79 1011.0
20260830053033 28 311 0.0 0.0 0.00 0.00 0.00 79 1011.0
20260830051536 28 312 0.0 0.0 0.00 0.00 0.00 79 1011.1
20260830050030 28 317 0.0 0.0 0.00 0.00 0.00 78 1011.2